| time (UTC) | temp C | wind direction | speed KPH | gust KPH | rain 1hr cm | rain 24hr cm | rain mn cm | humidity % | barometer mb |
| 20260508004506 | 10 | 185 | 0.0 | 6.4 | 0.00 | 0.00 | 0.00 | 75 | 1015.4 |
| 20260508003008 | 10 | 185 | 1.6 | 6.4 | 0.00 | 0.00 | 0.00 | 75 | 1015.3 |
| 20260508001518 | 10 | 186 | 0.0 | 1.6 | 0.00 | 0.00 | 0.00 | 74 | 1015.3 |
| 20260508000020 | 10 | 190 | 0.0 | 0.0 | 0.00 | 0.00 | 0.00 | 74 | 1015.4 |
| 20260507234531 | 10 | 190 | 0.0 | 0.0 | 0.00 | 0.00 | 0.00 | 74 | 1015.5 |
| 20260507233003 | 10 | 190 | 0.0 | 0.0 | 0.00 | 0.00 | 0.00 | 73 | 1015.5 |
| 20260507231509 | 10 | 190 | 0.0 | 0.0 | 0.00 | 0.00 | 0.00 | 74 | 1015.5 |
| 20260507230012 | 10 | 190 | 0.0 | 0.0 | 0.00 | 0.00 | 0.00 | 73 | 1015.6 |
| 20260507224521 | 10 | 190 | 0.0 | 0.0 | 0.00 | 0.00 | 0.00 | 73 | 1015.6 |
| 20260507223024 | 10 | 190 | 0.0 | 0.0 | 0.00 | 0.00 | 0.00 | 73 | 1015.6 |
| 20260507221506 | 10 | 190 | 0.0 | 0.0 | 0.00 | 0.00 | 0.00 | 74 | 1015.7 |
| 20260507220015 | 10 | 190 | 0.0 | 0.0 | 0.00 | 0.00 | 0.00 | 75 | 1015.8 |
| 20260507214511 | 10 | 190 | 0.0 | 0.0 | 0.00 | 0.00 | 0.00 | 76 | 1015.8 |
| 20260507213029 | 10 | 190 | 0.0 | 0.0 | 0.00 | 0.00 | 0.00 | 76 | 1015.8 |
| 20260507211524 | 10 | 190 | 0.0 | 0.0 | 0.00 | 0.00 | 0.00 | 76 | 1015.7 |
| 20260507210022 | 11 | 190 | 0.0 | 3.2 | 0.00 | 0.00 | 0.00 | 76 | 1015.5 |
| 20260507204512 | 11 | 190 | 0.0 | 1.6 | 0.00 | 0.00 | 0.00 | 76 | 1015.5 |
| 20260507203020 | 11 | 190 | 0.0 | 0.0 | 0.00 | 0.00 | 0.00 | 75 | 1015.3 |
| 20260507201520 | 11 | 190 | 0.0 | 0.0 | 0.00 | 0.00 | 0.00 | 75 | 1015.3 |
| 20260507200035 | 11 | 190 | 0.0 | 0.0 | 0.00 | 0.00 | 0.00 | 74 | 1015.2 |
| 20260507194509 | 11 | 190 | 0.0 | 0.0 | 0.00 | 0.00 | 0.00 | 74 | 1015.0 |
| 20260507193020 | 12 | 190 | 0.0 | 0.0 | 0.00 | 0.00 | 0.00 | 74 | 1014.9 |
| 20260507191525 | 12 | 190 | 0.0 | 0.0 | 0.00 | 0.00 | 0.00 | 74 | 1014.9 |
| 20260507190030 | 12 | 190 | 0.0 | 0.0 | 0.00 | 0.00 | 0.00 | 74 | 1014.9 |
| 20260507184523 | 13 | 190 | 0.0 | 0.0 | 0.00 | 0.00 | 0.00 | 74 | 1014.8 |
| 20260507183016 | 13 | 190 | 0.0 | 0.0 | 0.00 | 0.00 | 0.00 | 75 | 1014.7 |
| 20260507181516 | 13 | 190 | 0.0 | 0.0 | 0.00 | 0.00 | 0.00 | 75 | 1014.7 |
| 20260507180017 | 13 | 190 | 0.0 | 0.0 | 0.00 | 0.00 | 0.00 | 75 | 1014.6 |
| 20260507174524 | 13 | 190 | 0.0 | 0.0 | 0.00 | 0.00 | 0.00 | 75 | 1014.5 |
| 20260507173028 | 13 | 190 | 0.0 | 1.6 | 0.00 | 0.00 | 0.00 | 75 | 1014.5 |
| 20260507171511 | 13 | 190 | 0.0 | 3.2 | 0.00 | 0.00 | 0.00 | 75 | 1014.5 |
| 20260507170016 | 13 | 190 | 0.0 | 3.2 | 0.00 | 0.00 | 0.00 | 75 | 1014.6 |
| 20260507164522 | 13 | 190 | 0.0 | 0.0 | 0.00 | 0.00 | 0.00 | 73 | 1014.6 |
| 20260507163023 | 13 | 190 | 0.0 | 3.2 | 0.00 | 0.00 | 0.00 | 70 | 1014.7 |
| 20260507161512 | 13 | 190 | 0.0 | 0.0 | 0.00 | 0.00 | 0.00 | 69 | 1014.7 |
| 20260507160026 | 14 | 190 | 0.0 | 0.0 | 0.00 | 0.00 | 0.00 | 69 | 1014.8 |
| 20260507154517 | 14 | 190 | 3.2 | 8.0 | 0.00 | 0.00 | 0.00 | 71 | 1014.8 |
| 20260507153024 | 13 | 190 | 0.0 | 8.0 | 0.00 | 0.00 | 0.00 | 70 | 1014.7 |
| 20260507151508 | 13 | 189 | 0.0 | 3.2 | 0.00 | 0.00 | 0.00 | 70 | 1014.8 |
| 20260507150012 | 13 | 189 | 0.0 | 8.0 | 0.00 | 0.00 | 0.00 | 70 | 1014.9 |
| 20260507144525 | 13 | 180 | 0.0 | 4.8 | 0.00 | 0.00 | 0.00 | 70 | 1014.9 |
| 20260507143022 | 13 | 182 | 0.0 | 6.4 | 0.00 | 0.00 | 0.00 | 69 | 1014.9 |
| 20260507141529 | 14 | 182 | 1.6 | 9.7 | 0.00 | 0.00 | 0.00 | 67 | 1015.0 |
| 20260507140008 | 14 | 182 | 0.0 | 12.9 | 0.00 | 0.00 | 0.00 | 66 | 1015.1 |
| 20260507134513 | 15 | 143 | 0.0 | 6.4 | 0.00 | 0.00 | 0.00 | 65 | 1015.0 |
| 20260507133019 | 15 | 206 | 0.0 | 12.9 | 0.00 | 0.00 | 0.00 | 64 | 1015.0 |
| 20260507131528 | 15 | 232 | 0.0 | 9.7 | 0.00 | 0.00 | 0.00 | 66 | 1015.1 |
| 20260507130032 | 14 | 195 | 0.0 | 1.6 | 0.00 | 0.00 | 0.00 | 67 | 1015.2 |
| 20260507124516 | 14 | 195 | 0.0 | 4.8 | 0.00 | 0.00 | 0.00 | 64 | 1015.3 |
| 20260507123017 | 15 | 195 | 1.6 | 14.5 | 0.00 | 0.00 | 0.00 | 62 | 1015.4 |
| 20260507121520 | 15 | 251 | 1.6 | 12.9 | 0.00 | 0.00 | 0.00 | 61 | 1015.3 |
| 20260507120026 | 16 | 246 | 3.2 | 12.9 | 0.00 | 0.00 | 0.00 | 60 | 1015.3 |
| 20260507114528 | 15 | 242 | 1.6 | 11.3 | 0.00 | 0.00 | 0.00 | 62 | 1015.4 |
| 20260507113011 | 15 | 214 | 3.2 | 16.1 | 0.00 | 0.00 | 0.00 | 61 | 1015.3 |
| 20260507111516 | 15 | 187 | 0.0 | 6.4 | 0.00 | 0.00 | 0.00 | 63 | 1015.4 |
| 20260507110025 | 15 | 274 | 4.8 | 16.1 | 0.00 | 0.00 | 0.00 | 63 | 1015.5 |
| 20260507104524 | 15 | 215 | 8.0 | 22.5 | 0.00 | 0.00 | 0.00 | 60 | 1015.5 |
| 20260507103027 | 15 | 158 | 4.8 | 16.1 | 0.00 | 0.00 | 0.00 | 61 | 1015.6 |
| 20260507101518 | 15 | 157 | 3.2 | 14.5 | 0.00 | 0.00 | 0.00 | 68 | 1015.6 |
| 20260507100018 | 14 | 196 | 6.4 | 12.9 | 0.00 | 0.00 | 0.00 | 71 | 1015.6 |
| 20260507094525 | 13 | 169 | 4.8 | 14.5 | 0.00 | 0.00 | 0.00 | 73 | 1015.7 |
| 20260507093034 | 13 | 125 | 1.6 | 12.9 | 0.00 | 0.00 | 0.00 | 75 | 1015.7 |
| 20260507091527 | 12 | 89 | 3.2 | 12.9 | 0.00 | 0.00 | 0.00 | 78 | 1015.7 |
| 20260507090016 | 12 | 123 | 1.6 | 6.4 | 0.00 | 0.00 | 0.00 | 79 | 1015.8 |
| 20260507084521 | 11 | 117 | 1.6 | 12.9 | 0.00 | 0.00 | 0.00 | 80 | 1015.8 |
| 20260507083028 | 11 | 102 | 1.6 | 11.3 | 0.00 | 0.00 | 0.00 | 81 | 1015.8 |
| 20260507081535 | 10 | 74 | 3.2 | 11.3 | 0.00 | 0.00 | 0.00 | 83 | 1015.9 |
| 20260507080027 | 10 | 92 | 1.6 | 11.3 | 0.00 | 0.00 | 0.00 | 84 | 1015.8 |
| 20260507074518 | 9 | 107 | 1.6 | 11.3 | 0.00 | 0.00 | 0.00 | 85 | 1015.8 |
| 20260507073024 | 8 | 109 | 0.0 | 6.4 | 0.00 | 0.00 | 0.00 | 86 | 1015.8 |
| 20260507071528 | 8 | 109 | 0.0 | 9.7 | 0.00 | 0.00 | 0.00 | 86 | 1015.7 |
| 20260507070012 | 7 | 103 | 0.0 | 11.3 | 0.00 | 0.00 | 0.00 | 87 | 1015.6 |
| 20260507064517 | 7 | 248 | 0.0 | 6.4 | 0.00 | 0.00 | 0.00 | 87 | 1015.7 |
| 20260507063018 | 7 | 172 | 0.0 | 12.9 | 0.00 | 0.00 | 0.00 | 87 | 1015.5 |
| 20260507061506 | 7 | 127 | 1.6 | 12.9 | 0.00 | 0.00 | 0.00 | 86 | 1015.5 |
| 20260507060011 | 7 | 103 | 0.0 | 4.8 | 0.00 | 0.00 | 0.00 | 86 | 1015.5 |
| 20260507054515 | 7 | 88 | 0.0 | 6.4 | 0.00 | 0.00 | 0.00 | 86 | 1015.5 |
| 20260507053020 | 7 | 87 | 0.0 | 4.8 | 0.00 | 0.00 | 0.00 | 86 | 1015.3 |
| 20260507051522 | 7 | 88 | 0.0 | 4.8 | 0.00 | 0.00 | 0.00 | 86 | 1015.3 |
| 20260507050008 | 7 | 88 | 0.0 | 0.0 | 0.00 | 0.00 | 0.00 | 85 | 1015.3 |
| 20260507044512 | 7 | 88 | 0.0 | 3.2 | 0.00 | 0.00 | 0.00 | 85 | 1015.2 |
| 20260507043018 | 7 | 88 | 0.0 | 0.0 | 0.00 | 0.00 | 0.00 | 85 | 1015.1 |
| 20260507041536 | 7 | 88 | 0.0 | 4.8 | 0.00 | 0.00 | 0.00 | 84 | 1015.2 |
| 20260507040023 | 7 | 88 | 0.0 | 6.4 | 0.00 | 0.00 | 0.00 | 84 | 1015.2 |
| 20260507034512 | 7 | 88 | 0.0 | 9.7 | 0.00 | 0.00 | 0.00 | 84 | 1015.2 |
| 20260507033014 | 7 | 87 | 0.0 | 4.8 | 0.00 | 0.00 | 0.00 | 84 | 1015.1 |
| 20260507031516 | 7 | 88 | 0.0 | 3.2 | 0.00 | 0.00 | 0.00 | 83 | 1015.2 |
| 20260507030020 | 7 | 88 | 0.0 | 4.8 | 0.00 | 0.00 | 0.00 | 83 | 1015.2 |
| 20260507024524 | 7 | 87 | 0.0 | 3.2 | 0.00 | 0.00 | 0.00 | 83 | 1015.1 |
| 20260507023009 | 7 | 88 | 0.0 | 3.2 | 0.00 | 0.00 | 0.00 | 82 | 1015.2 |
| 20260507021514 | 7 | 87 | 0.0 | 4.8 | 0.00 | 0.00 | 0.00 | 82 | 1015.2 |
| 20260507020018 | 7 | 87 | 1.6 | 6.4 | 0.00 | 0.00 | 0.00 | 82 | 1015.2 |
| 20260507014537 | 7 | 88 | 0.0 | 0.0 | 0.00 | 0.00 | 0.00 | 81 | 1015.2 |
| 20260507013038 | 7 | 87 | 0.0 | 0.0 | 0.00 | 0.00 | 0.00 | 81 | 1015.2 |
| 20260507011518 | 7 | 87 | 0.0 | 0.0 | 0.00 | 0.00 | 0.00 | 81 | 1015.2 |
| 20260507010013 | 7 | 88 | 0.0 | 6.4 | 0.00 | 0.00 | 0.00 | 81 | 1015.1 |